[[{"header":{"parameterUnit":"m.s-1","parameterCategory":2,"la1":30.2991,"la2":30.254,"lo1":-89.0895,"lo2":-89.0444,"dy":0.0017,"dx":0.0017,"nx":28,"ny":28,"refTime":"2024-02-05T03:00:00:Z","depth":"0","parameterNumber":2,"parameterNumberName":"U-component_of_CURRENTS"},"data":[0,0,0,0,0,0,0,0,0,0,0,0,0,0,0,0,0,0,0,0,0,0,0,0,0,0,0,0,0,0,0,0,0,0,0,0,0,0,0,0,0,0,0,0,0,0,0,0,0,0,0,0,0,0,0,0,0,0,0.2487,0.2487,0,0.2526,0.2526,0.2526,0.2532,0.2532,0.2531,0.2531,0.2528,0.2528,0.2528,0,0,0,0,0,0,0,0,0,0,0,0,0,0.2404,0.2406,0.2487,0.2488,0.2488,0.2526,0.2526,0.2526,0.2532,0.2532,0.2531,0.2531,0.2528,0.2528,0.2528,0,0,0,0,0,0,0,0,0,0,0,0,0,0.2439,0.2406,0.2487,0.2498,0.2499,0.2526,0.2526,0.2526,0.2532,0.2532,0.2531,0.2531,0.2528,0.2528,0.2528,0.2532,0,0,0.2528,0.2528,0,0,0,0,0,0,0,0,0.2437,0.2441,0.2495,0.2497,0.2499,0.2526,0.2496,0.2527,0.2532,0.2516,0.2531,0.2531,0.2526,0.2526,0.253,0.2531,0.2531,0.2528,0.2528,0.2528,0.2528,0,0,0,0,0,0,0,0.2434,0.244,0.2499,0.2496,0.2498,0.2496,0.2501,0.2502,0.2518,0.2518,0.2519,0.2528,0.2526,0.253,0.253,0.2531,0.2528,0.2528,0.2528,0.2528,0.2574,0.2575,0,0,0,0,0,0,0.2436,0.2438,0.2498,0.2501,0.247,0.2498,0.2503,0.2515,0.2519,0.2521,0.2528,0.2528,0.253,0.253,0.253,0.2569,0.2528,0.2528,0.2528,0.2573,0.2574,0.2575,0,0,0,0,0,0,0.2435,0.2442,0.2497,0.2472,0.2479,0.25,0.2514,0.2516,0.2525,0.2528,0.2528,0.2535,0.253,0.253,0.2542,0.2567,0.2528,0.2528,0.2571,0.2573,0.2575,0.2624,0,0,0,0,0,0,0.2432,0.2441,0.2447,0.2472,0.2481,0.2521,0.2514,0.2517,0.2532,0.2533,0.2534,0.2534,0.253,0.2542,0.2542,0.2566,0.2528,0.257,0.2572,0.2574,0.2621,0.2627,0.2633,0,0,0,0,0,0.2429,0.244,0.2447,0.2454,0.249,0.2523,0.2527,0.2538,0.2533,0.2544,0.2545,0.2534,0.2557,0.2543,0.2543,0.2568,0.2569,0.2571,0.2574,0.2618,0.2626,0.2633,0,0,0,0,0,0,0.2403,0.2443,0.2451,0.2472,0.25,0.2525,0.2536,0.2542,0.2552,0.255,0.2545,0.2545,0.257,0.256,0.2545,0.2588,0.2563,0.2565,0.2596,0.2604,0.2609,0.2626,0.2528,0,0,0,0,0,0.2403,0.2424,0.2459,0.2477,0.2492,0.2513,0.2526,0.2538,0.2553,0.2557,0.2558,0.2564,0.258,0.2583,0.2594,0.261,0.2632,0.2627,0.2633,0.2638,0.2653,0.2714,0.2727,0.2584,0.2584,0.2584,0,0,0.2396,0.2422,0.2433,0.2473,0.2494,0.2523,0.252,0.2548,0.2571,0.2554,0.2578,0.2585,0.2591,0.2618,0.2627,0.2611,0.2691,0.2642,0.2646,0.2658,0.2718,0.2732,0.2745,0.2586,0.2586,0.2585,0,0,0.2399,0.2421,0.2441,0.247,0.251,0.253,0.2539,0.257,0.2584,0.2608,0.261,0.2633,0.2641,0.2663,0.2672,0.2715,0.2724,0.2714,0.2754,0.2813,0.2826,0.2837,0.2886,0.2901,0.2713,0.2713,0.2713,0,0.2388,0.2424,0.2451,0.2482,0.2509,0.2534,0.2564,0.2586,0.2615,0.2637,0.262,0.2673,0.2668,0.2725,0.2739,0.273,0.2762,0.2725,0.2822,0.2834,0.2845,0.2892,0.2908,0.2716,0.2715,0.2715,0.2715,0,0.2412,0.2442,0.2459,0.2509,0.2539,0.2571,0.2612,0.2641,0.2655,0.2679,0.2733,0.274,0.2776,0.2777,0.2767,0.2846,0.2844,0.2827,0.2806,0.2862,0.2908,0.2924,0.272,0.2719,0.2718,0.2717,0,0,0.2379,0.246,0.2463,0.2495,0.2559,0.2585,0.2638,0.2697,0.2738,0.2764,0.2822,0.285,0.2863,0.2876,0.2878,0.2919,0.3013,0.2906,0.2907,0.2957,0.3149,0.3144,0.3161,0.3017,0.302,0.3022,0.3151,0,0.2388,0.2448,0.2488,0.2543,0.258,0.2631,0.2681,0.2736,0.2779,0.2839,0.2874,0.2924,0.29,0.2924,0.2968,0.3007,0.3058,0.298,0.3085,0.3088,0.3079,0.3181,0.3123,0.3233,0.3167,0.3169,0.3171,0,0.2393,0.2438,0.2491,0.2577,0.2597,0.2629,0.2721,0.2771,0.2866,0.2904,0.2971,0.3003,0.3084,0.3043,0.3161,0.3116,0.3144,0.3163,0.3168,0.316,0.3114,0.3165,0.3264,0.3208,0.3196,0.3194,0.3192,0,0.2356,0.2438,0.248,0.2508,0.2604,0.2637,0.269,0.2783,0.2849,0.2952,0.3013,0.3102,0.3163,0.322,0.327,0.3228,0.3393,0.3337,0.3362,0.3361,0.3331,0.3323,0.3392,0.3429,0.3429,0.3428,0.3428,0,0.235,0.2382,0.2463,0.2485,0.2541,0.2615,0.2687,0.2757,0.2878,0.2953,0.3042,0.3125,0.3214,0.3312,0.3328,0.3418,0.3451,0.3406,0.3411,0.3346,0.3337,0.3299,0.3257,0.3433,0.3432,0.3431,0.343,0,0.2295,0.2353,0.2402,0.2493,0.2521,0.2556,0.2683,0.2741,0.2865,0.2971,0.3015,0.3185,0.3315,0.3403,0.3512,0.3506,0.3497,0.3585,0.3501,0.3495,0.3434,0.3395,0.3341,0.3231,0.3637,0.3638,0.3639,0,0.2273,0.2292,0.2379,0.2407,0.2442,0.2513,0.2565,0.2707,0.278,0.299,0.3039,0.323,0.3344,0.354,0.3595,0.3681,0.3545,0.3637,0.354,0.3462,0.3424,0.3256,0.3153,0.3521,0.352,0.352,0.352,0,0.2223,0.2248,0.2288,0.2344,0.2389,0.2458,0.2546,0.2608,0.2767,0.2887,0.3059,0.3184,0.3415,0.3513,0.3644,0.3665,0.3493,0.3634,0.3585,0.3382,0.3174,0.3059,0.3394,0.3518,0.3518,0.3518,0.3518,0.3519,0.2169,0.2178,0.2227,0.2274,0.2327,0.238,0.2405,0.252,0.2636,0.2784,0.2969,0.3133,0.3375,0.358,0.3575,0.3584,0.3494,0.3504,0.348,0.3328,0.3171,0.3501,0.3604,0.3605,0.3605,0.3606,0.3606,0,0.2095,0.2121,0.2161,0.2204,0.2222,0.229,0.2372,0.239,0.2468,0.2675,0.2831,0.3117,0.3266,0.3422,0.3573,0.3474,0.3263,0.3375,0.3135,0.3049,0.3405,0.335,0.3363,0.3363,0.3363,0.3363,0.3363,0.3363,0.2056,0.206,0.2086,0.2086,0.2116,0.2108,0.2131,0.2183,0.2317,0.25,0.2688,0.2882,0.3263,0.3528,0.3532,0.3424,0.3122,0.301,0.2928,0.322,0.3229,0.3237,0.3176,0.3153,0.3153,0.2459,0.2454,0.2451]},{"header":{"parameterUnit":"m.s-1","parameterCategory":2,"la1":30.2991,"la2":30.254,"lo1":-89.0895,"lo2":-89.0444,"dy":0.0017,"dx":0.0017,"nx":28,"ny":28,"refTime":"2024-02-05T03:00:00:Z","depth":"0","parameterNumber":3,"parameterNumberName":"V-component_of_CURRENTS"},"data":[0,0,0,0,0,0,0,0,0,0,0,0,0,0,0,0,0,0,0,0,0,0,0,0,0,0,0,0,0,0,0,0,0,0,0,0,0,0,0,0,0,0,0,0,0,0,0,0,0,0,0,0,0,0,0,0,0,0,-0.0295,-0.0296,0,-0.0355,-0.0356,-0.0356,-0.0403,-0.0404,-0.0404,-0.0405,-0.0493,-0.0495,-0.0497,0,0,0,0,0,0,0,0,0,0,0,0,0,-0.0259,-0.0259,-0.0295,-0.0296,-0.0296,-0.0355,-0.0356,-0.0356,-0.0403,-0.0404,-0.0404,-0.0405,-0.0493,-0.0495,-0.0497,0,0,0,0,0,0,0,0,0,0,0,0,0,-0.0293,-0.0259,-0.0295,-0.0327,-0.033,-0.0355,-0.0356,-0.0357,-0.0403,-0.0404,-0.0405,-0.0405,-0.0492,-0.0495,-0.0498,-0.0503,0,0,-0.0507,-0.0508,0,0,0,0,0,0,0,0,-0.0291,-0.0294,-0.0321,-0.0324,-0.0328,-0.0372,-0.0376,-0.0407,-0.0403,-0.0376,-0.0405,-0.0405,-0.0455,-0.0461,-0.0471,-0.0507,-0.0511,-0.0507,-0.0509,-0.051,-0.0511,0,0,0,0,0,0,0,-0.0288,-0.0292,-0.0319,-0.0322,-0.0326,-0.0351,-0.0356,-0.0382,-0.0412,-0.0378,-0.0382,-0.0388,-0.0457,-0.0468,-0.0473,-0.0512,-0.0507,-0.0509,-0.0511,-0.0512,-0.0562,-0.0561,0,0,0,0,0,0,-0.0277,-0.0289,-0.0317,-0.0321,-0.031,-0.0351,-0.0357,-0.0358,-0.0411,-0.0419,-0.0387,-0.039,-0.0462,-0.047,-0.0476,-0.0489,-0.051,-0.0513,-0.0514,-0.0562,-0.0562,-0.0561,0,0,0,0,0,0,-0.0276,-0.0279,-0.0315,-0.0307,-0.0313,-0.035,-0.0351,-0.0358,-0.037,-0.0417,-0.0426,-0.0392,-0.0463,-0.0472,-0.05,-0.0493,-0.0514,-0.0517,-0.0563,-0.0562,-0.0561,-0.0512,0,0,0,0,0,0,-0.0275,-0.0278,-0.0274,-0.0305,-0.0313,-0.0323,-0.0351,-0.0359,-0.0373,-0.0377,-0.0424,-0.0433,-0.0464,-0.0495,-0.0503,-0.0497,-0.0519,-0.0563,-0.0562,-0.0562,-0.0514,-0.051,-0.0506,0,0,0,0,0,-0.0273,-0.026,-0.0273,-0.0277,-0.0306,-0.0322,-0.0328,-0.0358,-0.0372,-0.0372,-0.0407,-0.0432,-0.0495,-0.0497,-0.0506,-0.0501,-0.0564,-0.0563,-0.0562,-0.0516,-0.0511,-0.0506,0,0,0,0,0,0,-0.024,-0.0264,-0.028,-0.0274,-0.0295,-0.033,-0.033,-0.0352,-0.0379,-0.0382,-0.043,-0.0441,-0.0462,-0.0486,-0.0487,-0.0512,-0.0532,-0.0532,-0.0494,-0.0489,-0.0485,-0.0472,-0.0521,0,0,0,0,0,-0.023,-0.0229,-0.0258,-0.0254,-0.026,-0.0295,-0.0305,-0.0324,-0.0352,-0.0365,-0.0399,-0.0433,-0.0464,-0.048,-0.0508,-0.0522,-0.0554,-0.0523,-0.0519,-0.0515,-0.051,-0.057,-0.0571,-0.0558,-0.0558,-0.0558,0,0,-0.0217,-0.023,-0.0229,-0.0247,-0.0265,-0.0265,-0.0302,-0.0309,-0.0312,-0.037,-0.0382,-0.0421,-0.0464,-0.0482,-0.0493,-0.0502,-0.0531,-0.0514,-0.051,-0.0507,-0.0569,-0.0571,-0.0572,-0.0557,-0.0557,-0.0557,0,0,-0.0183,-0.0198,-0.0184,-0.0197,-0.0216,-0.0238,-0.0238,-0.0268,-0.0284,-0.0302,-0.0345,-0.0381,-0.042,-0.0455,-0.0477,-0.0466,-0.0508,-0.047,-0.044,-0.0498,-0.05,-0.0502,-0.0524,-0.0528,-0.0467,-0.0467,-0.0467,0,-0.0165,-0.0153,-0.0183,-0.0172,-0.0177,-0.0222,-0.0207,-0.0228,-0.0265,-0.0276,-0.0297,-0.037,-0.0408,-0.0442,-0.0439,-0.0457,-0.0486,-0.0456,-0.0493,-0.0496,-0.05,-0.0522,-0.0527,-0.0464,-0.0465,-0.0465,-0.0465,0,-0.0123,-0.0114,-0.0105,-0.0109,-0.0119,-0.0112,-0.0144,-0.0155,-0.0182,-0.0212,-0.025,-0.0312,-0.0356,-0.0374,-0.0405,-0.044,-0.045,-0.0483,-0.0507,-0.0498,-0.0521,-0.0528,-0.0461,-0.0462,-0.0462,-0.0463,0,0,-0.0077,-0.0074,-0.0071,-0.006,-0.0082,-0.0082,-0.0085,-0.0104,-0.0102,-0.0158,-0.0169,-0.0239,-0.0282,-0.031,-0.036,-0.0412,-0.0455,-0.045,-0.0454,-0.0471,-0.056,-0.0534,-0.0539,-0.0502,-0.0503,-0.0504,-0.056,0,-0.0033,0.0007,-0.0011,0.0019,0.0038,-0.0002,0.0003,-0.0023,-0.0057,-0.0079,-0.016,-0.0189,-0.0255,-0.0273,-0.034,-0.0425,-0.0474,-0.0435,-0.0566,-0.0569,-0.0549,-0.0547,-0.0519,-0.0565,-0.0567,-0.0569,-0.057,0,0.0018,0.0038,0.0081,0.0094,0.0098,0.0104,0.01,0.0099,0.005,0.0021,-0.0042,-0.0102,-0.018,-0.0238,-0.0391,-0.0364,-0.0454,-0.0526,-0.0531,-0.053,-0.0557,-0.0579,-0.0578,-0.0763,-0.0581,-0.058,-0.0579,0,0.0075,0.0102,0.014,0.0143,0.0149,0.0159,0.016,0.0131,0.0148,0.0085,0.0085,-0.0036,-0.0073,-0.0222,-0.0361,-0.0383,-0.0522,-0.0574,-0.0635,-0.0633,-0.0645,-0.0642,-0.084,-0.0686,-0.0686,-0.0686,-0.0686,0,0.0132,0.0163,0.0171,0.0194,0.0246,0.0222,0.0265,0.0246,0.0235,0.0264,0.0144,0.0147,-0.0074,-0.0172,-0.0331,-0.0484,-0.0501,-0.0623,-0.0651,-0.0623,-0.0617,-0.0808,-0.0922,-0.0688,-0.0687,-0.0687,-0.0687,0,0.019,0.0194,0.0244,0.0263,0.0277,0.0315,0.0355,0.0385,0.036,0.0394,0.0385,0.0286,0.0159,-0.0044,-0.0264,-0.0413,-0.0682,-0.063,-0.0558,-0.0576,-0.0814,-0.0924,-0.1149,-0.1227,-0.0719,-0.0719,-0.0719,0,0.0223,0.0256,0.0305,0.0345,0.0357,0.0409,0.0452,0.0449,0.0491,0.0495,0.0526,0.0428,0.0388,0.009,-0.02,-0.0464,-0.066,-0.0614,-0.0664,-0.0818,-0.0964,-0.1054,-0.111,-0.0657,-0.0656,-0.0656,-0.0655,0,0.0291,0.0306,0.0348,0.0435,0.0487,0.0553,0.0615,0.0675,0.0683,0.0724,0.0777,0.0757,0.0481,0.0242,-0.0121,-0.0327,-0.0747,-0.061,-0.0813,-0.0963,-0.1034,-0.1122,-0.0607,-0.065,-0.0651,-0.0651,-0.0652,-0.0652,0.0344,0.0389,0.0449,0.0532,0.0601,0.0696,0.0773,0.0848,0.0951,0.1039,0.0999,0.1023,0.0637,0.0152,-0.0153,-0.0689,-0.0724,-0.0853,-0.0979,-0.1059,-0.1131,-0.0575,-0.0624,-0.0625,-0.0625,-0.0625,-0.0626,0,0.0412,0.0463,0.0544,0.0645,0.0738,0.0756,0.0883,0.0974,0.1122,0.1214,0.1278,0.1141,0.0665,0.0152,-0.0565,-0.0971,-0.115,-0.1211,-0.1363,-0.1408,-0.095,-0.0942,-0.1009,-0.1009,-0.1008,-0.1008,-0.1008,-0.1008,0.045,0.0542,0.0584,0.075,0.0824,0.0959,0.1043,0.1184,0.1293,0.1448,0.1503,0.1494,0.112,-0.0225,-0.117,-0.1404,-0.1697,-0.1762,-0.1922,-0.1642,-0.1619,-0.1597,-0.1617,-0.1825,-0.1826,-0.2314,-0.2319,-0.2323]}],[{"header":{"parameterUnit":"m.s-1","parameterCategory":2,"la1":30.2991,"la2":30.254,"lo1":-89.0895,"lo2":-89.0444,"dy":0.0017,"dx":0.0017,"nx":28,"ny":28,"refTime":"2024-02-05T03:00:00:Z","depth":"2","parameterNumber":2,"parameterNumberName":"U-component_of_CURRENTS"},"data":[0,0,0,0,0,0,0,0,0,0,0,0,0,0,0,0,0,0,0,0,0,0,0,0,0,0,0,0,0,0,0,0,0,0,0,0,0,0,0,0,0,0,0,0,0,0,0,0,0,0,0,0,0,0,0,0,0,0,0.2292,0.2292,0,0.2333,0.2333,0.2334,0.2346,0.2346,0.2346,0.2347,0.2358,0.2358,0.2358,0,0,0,0,0,0,0,0,0,0,0,0,0,0.2211,0.2212,0.2292,0.2293,0.2293,0.2333,0.2333,0.2334,0.2346,0.2346,0.2346,0.2347,0.2358,0.2358,0.2358,0,0,0,0,0,0,0,0,0,0,0,0,0,0.2246,0.2212,0.2292,0.2306,0.2308,0.2333,0.2333,0.2334,0.2346,0.2346,0.2347,0.2347,0.2358,0.2358,0.2358,0.236,0,0,0.236,0.236,0,0,0,0,0,0,0,0,0.2244,0.2248,0.2303,0.2305,0.2308,0.2337,0.2309,0.2342,0.2346,0.2329,0.2347,0.2347,0.235,0.2351,0.2355,0.236,0.2361,0.236,0.236,0.236,0.236,0,0,0,0,0,0,0,0.2241,0.2247,0.2305,0.2304,0.2307,0.2307,0.2311,0.2315,0.2336,0.2331,0.2332,0.2341,0.235,0.2355,0.2355,0.2361,0.236,0.236,0.236,0.236,0.2416,0.2417,0,0,0,0,0,0,0.2243,0.2245,0.2304,0.2307,0.2278,0.2308,0.2314,0.2325,0.2337,0.2339,0.2341,0.2342,0.2354,0.2355,0.2356,0.2401,0.236,0.236,0.2361,0.2415,0.2416,0.2417,0,0,0,0,0,0,0.2241,0.2248,0.2303,0.2278,0.2286,0.231,0.2323,0.2326,0.2341,0.2345,0.2347,0.2353,0.2354,0.2355,0.2373,0.24,0.2361,0.2361,0.2413,0.2415,0.2417,0.2464,0,0,0,0,0,0,0.2238,0.2247,0.2255,0.2279,0.2287,0.2329,0.2323,0.2327,0.2347,0.2348,0.2356,0.2357,0.2354,0.2373,0.2374,0.24,0.2361,0.2412,0.2414,0.2416,0.2461,0.2468,0.2473,0,0,0,0,0,0.2235,0.2248,0.2255,0.2263,0.2299,0.233,0.2334,0.2349,0.2347,0.236,0.2366,0.2357,0.2388,0.2374,0.2375,0.2402,0.241,0.2413,0.2416,0.2459,0.2466,0.2473,0,0,0,0,0,0,0.2214,0.2251,0.226,0.2282,0.231,0.2333,0.2347,0.2355,0.2369,0.2371,0.2368,0.237,0.24,0.2392,0.2376,0.2426,0.24,0.2403,0.2432,0.2439,0.2445,0.246,0.2362,0,0,0,0,0,0.2215,0.2237,0.2269,0.2289,0.2304,0.2326,0.234,0.2353,0.237,0.2377,0.2383,0.2392,0.2411,0.2417,0.243,0.2449,0.2466,0.2469,0.2475,0.248,0.2494,0.2547,0.256,0.2427,0.2427,0.2426,0,0,0.2211,0.2236,0.2247,0.2287,0.2308,0.2335,0.2335,0.2364,0.2389,0.2375,0.2405,0.2414,0.2422,0.2452,0.2464,0.2448,0.2526,0.2484,0.2488,0.2499,0.2552,0.2565,0.2576,0.2428,0.2428,0.2428,0,0,0.2216,0.224,0.226,0.2289,0.2329,0.2346,0.2358,0.2389,0.2406,0.2433,0.2438,0.2464,0.2478,0.2499,0.2508,0.2552,0.2559,0.2556,0.2595,0.2647,0.2658,0.2669,0.2704,0.2717,0.2555,0.2555,0.2555,0,0.2208,0.2244,0.227,0.2301,0.2327,0.2353,0.2382,0.2406,0.2438,0.2462,0.2449,0.2503,0.2504,0.2557,0.2574,0.2567,0.2594,0.2565,0.2656,0.2666,0.2676,0.271,0.2724,0.2558,0.2558,0.2557,0.2557,0,0.2232,0.2263,0.2281,0.2329,0.2357,0.2391,0.243,0.2462,0.248,0.2504,0.256,0.2568,0.2603,0.2608,0.2603,0.2679,0.2674,0.266,0.2638,0.2693,0.2724,0.2738,0.2562,0.2561,0.256,0.2559,0,0,0.2203,0.2281,0.2286,0.2316,0.2379,0.2402,0.2457,0.2514,0.2556,0.2585,0.264,0.2673,0.2687,0.2699,0.2704,0.2743,0.2828,0.2735,0.2737,0.2771,0.2945,0.2927,0.2939,0.2836,0.2839,0.2841,0.2937,0,0.2214,0.2269,0.2309,0.2362,0.2394,0.2447,0.2495,0.2551,0.2596,0.2655,0.2689,0.2738,0.272,0.2744,0.2785,0.2824,0.2868,0.2803,0.2886,0.2888,0.2867,0.2956,0.2747,0.2814,0.2951,0.2953,0.2954,0,0.222,0.226,0.2311,0.2389,0.2409,0.2443,0.2532,0.2582,0.2675,0.2716,0.2779,0.2808,0.2883,0.285,0.2954,0.2918,0.2943,0.296,0.2964,0.2943,0.2897,0.2783,0.2834,0.2977,0.2975,0.2974,0.2972,0,0.2182,0.226,0.23,0.2327,0.2415,0.2453,0.2504,0.2598,0.2657,0.2764,0.2819,0.2899,0.2954,0.3004,0.3047,0.3015,0.3154,0.3107,0.3113,0.311,0.2946,0.2926,0.3187,0.3187,0.3187,0.3186,0.3186,0,0.2176,0.2206,0.2285,0.2307,0.2361,0.2433,0.2505,0.2575,0.2688,0.276,0.2847,0.2918,0.3,0.3081,0.3096,0.3163,0.3199,0.315,0.315,0.2956,0.2936,0.3081,0.3068,0.319,0.3189,0.3188,0.3188,0,0.2125,0.218,0.2226,0.2314,0.2343,0.238,0.25,0.2555,0.2674,0.2777,0.2819,0.2967,0.3081,0.3153,0.3248,0.3234,0.3285,0.3292,0.3057,0.303,0.3189,0.3177,0.3313,0.3314,0.3314,0.3315,0.3315,0,0.2104,0.2123,0.2207,0.2234,0.2274,0.2345,0.2396,0.2527,0.2596,0.2791,0.2835,0.3001,0.3092,0.3245,0.3276,0.3334,0.3335,0.3142,0.3042,0.3224,0.321,0.3197,0.3184,0.2834,0.283,0.2828,0.2825,0,0.2058,0.2087,0.2124,0.2177,0.2226,0.2287,0.2376,0.2425,0.258,0.2684,0.2832,0.293,0.3114,0.3102,0.3195,0.3182,0.3117,0.3085,0.3356,0.2842,0.2782,0.2765,0.2766,0.2799,0.2801,0.2803,0.2805,0.2806,0.2013,0.2021,0.2069,0.2115,0.2165,0.221,0.223,0.2335,0.2429,0.2553,0.2715,0.2799,0.2894,0.2953,0.2899,0.2871,0.3068,0.2914,0.2919,0.2928,0.2863,0.2808,0.2816,0.2819,0.2821,0.2823,0.2825,0,0.1946,0.1969,0.2006,0.2046,0.206,0.2128,0.2197,0.2201,0.226,0.2417,0.2534,0.2428,0.2473,0.2549,0.25,0.2536,0.2459,0.2409,0.2276,0.2309,0.2337,0.2234,0.2024,0.2021,0.2018,0.2015,0,0,0.191,0.1911,0.1932,0.1928,0.1958,0.1946,0.1962,0.1989,0.2077,0.2107,0.2157,0.2381,0.2519,0.223,0.2227,0.2113,0.2175,0.2038,0.2699,0.2579,0.2601,0.2673,0.2562,0,0,0,0,0]},{"header":{"parameterUnit":"m.s-1","parameterCategory":2,"la1":30.2991,"la2":30.254,"lo1":-89.0895,"lo2":-89.0444,"dy":0.0017,"dx":0.0017,"nx":28,"ny":28,"refTime":"2024-02-05T03:00:00:Z","depth":"2","parameterNumber":3,"parameterNumberName":"V-component_of_CURRENTS"},"data":[0,0,0,0,0,0,0,0,0,0,0,0,0,0,0,0,0,0,0,0,0,0,0,0,0,0,0,0,0,0,0,0,0,0,0,0,0,0,0,0,0,0,0,0,0,0,0,0,0,0,0,0,0,0,0,0,0,0,-0.0055,-0.0055,0,-0.0116,-0.0117,-0.0117,-0.0163,-0.0164,-0.0164,-0.0165,-0.0251,-0.0253,-0.0255,0,0,0,0,0,0,0,0,0,0,0,0,0,-0.0015,-0.0015,-0.0055,-0.0055,-0.0056,-0.0116,-0.0117,-0.0118,-0.0163,-0.0164,-0.0164,-0.0165,-0.025,-0.0253,-0.0255,0,0,0,0,0,0,0,0,0,0,0,0,0,-0.0049,-0.0015,-0.0054,-0.0086,-0.009,-0.0116,-0.0117,-0.0118,-0.0163,-0.0164,-0.0165,-0.0165,-0.025,-0.0252,-0.0255,-0.0261,0,0,-0.0264,-0.0265,0,0,0,0,0,0,0,0,-0.0047,-0.0051,-0.0081,-0.0084,-0.0088,-0.0133,-0.0134,-0.0167,-0.0163,-0.0135,-0.0165,-0.0165,-0.0213,-0.0219,-0.0229,-0.0265,-0.0269,-0.0264,-0.0266,-0.0267,-0.0268,0,0,0,0,0,0,0,-0.0045,-0.0049,-0.0079,-0.0081,-0.0086,-0.011,-0.0115,-0.0141,-0.0171,-0.0138,-0.0141,-0.0148,-0.0216,-0.0226,-0.0232,-0.027,-0.0264,-0.0267,-0.0269,-0.027,-0.0323,-0.0322,0,0,0,0,0,0,-0.0034,-0.0046,-0.0077,-0.0081,-0.0069,-0.011,-0.0116,-0.0118,-0.017,-0.0178,-0.0147,-0.015,-0.0221,-0.0228,-0.0235,-0.0248,-0.0267,-0.027,-0.0272,-0.0323,-0.0323,-0.0322,0,0,0,0,0,0,-0.0033,-0.0036,-0.0075,-0.0065,-0.0072,-0.011,-0.0112,-0.0119,-0.0133,-0.0177,-0.0186,-0.0155,-0.0222,-0.0231,-0.0259,-0.0252,-0.0271,-0.0274,-0.0323,-0.0323,-0.0322,-0.0272,0,0,0,0,0,0,-0.0032,-0.0035,-0.0033,-0.0064,-0.0072,-0.0086,-0.0111,-0.0119,-0.0136,-0.014,-0.0186,-0.0195,-0.0223,-0.0254,-0.0262,-0.0256,-0.0276,-0.0324,-0.0323,-0.0323,-0.0274,-0.027,-0.0267,0,0,0,0,0,-0.003,-0.0019,-0.0032,-0.0036,-0.0067,-0.0085,-0.0091,-0.0121,-0.0136,-0.0137,-0.0171,-0.0193,-0.0256,-0.0257,-0.0265,-0.026,-0.0324,-0.0323,-0.0323,-0.0276,-0.0271,-0.0267,0,0,0,0,0,0,0.0,-0.0024,-0.0039,-0.0036,-0.0058,-0.0093,-0.0095,-0.0118,-0.0146,-0.0149,-0.0193,-0.0204,-0.0225,-0.0249,-0.0249,-0.0273,-0.0292,-0.0293,-0.0254,-0.0249,-0.0245,-0.0227,-0.0279,0,0,0,0,0,0.0009,0.0009,-0.002,-0.0019,-0.0026,-0.0061,-0.0073,-0.0092,-0.0121,-0.0134,-0.0167,-0.02,-0.0228,-0.0243,-0.0271,-0.0285,-0.0311,-0.0286,-0.0282,-0.0278,-0.0269,-0.0313,-0.0313,-0.032,-0.032,-0.032,0,0,0.0021,0.0007,0.0007,-0.0013,-0.0031,-0.0033,-0.0069,-0.008,-0.0083,-0.0138,-0.0152,-0.0189,-0.0229,-0.0246,-0.0257,-0.0266,-0.0288,-0.0277,-0.0274,-0.0267,-0.0312,-0.0312,-0.0311,-0.0319,-0.032,-0.032,0,0,0.005,0.0034,0.0046,0.0033,0.0011,-0.0011,-0.0012,-0.0045,-0.006,-0.008,-0.0119,-0.0153,-0.0193,-0.0222,-0.0241,-0.0231,-0.0268,-0.0238,-0.0203,-0.0246,-0.0246,-0.0246,-0.0269,-0.0271,-0.0234,-0.0234,-0.0234,0,0.0065,0.0076,0.0046,0.0054,0.0049,0.0003,0.0015,-0.0005,-0.0044,-0.0051,-0.0076,-0.014,-0.018,-0.0202,-0.0201,-0.0222,-0.0246,-0.0217,-0.0241,-0.0241,-0.0243,-0.0266,-0.027,-0.0231,-0.0232,-0.0232,-0.0232,0,0.0103,0.011,0.0117,0.0112,0.0101,0.0105,0.0073,0.0063,0.0035,0.0008,-0.0022,-0.0082,-0.0119,-0.0139,-0.017,-0.0191,-0.0204,-0.0232,-0.0251,-0.0239,-0.0265,-0.0269,-0.0228,-0.0229,-0.023,-0.023,0,0,0.0142,0.0145,0.0147,0.0159,0.0135,0.0134,0.0131,0.0117,0.0123,0.0069,0.0067,0.0,-0.0039,-0.0063,-0.011,-0.0151,-0.0184,-0.0189,-0.0192,-0.0208,-0.0265,-0.0274,-0.028,-0.0219,-0.022,-0.0221,-0.0277,0,0.0181,0.0218,0.0201,0.0231,0.0248,0.0212,0.0217,0.0196,0.0166,0.0152,0.0082,0.0057,-0.0007,-0.0025,-0.0077,-0.0155,-0.0195,-0.0165,-0.0277,-0.028,-0.0288,-0.0285,-0.0256,-0.0303,-0.0281,-0.0282,-0.0283,0,0.0225,0.0246,0.0285,0.0304,0.0308,0.0312,0.0315,0.0316,0.028,0.0256,0.0208,0.0151,0.0087,0.0028,-0.0101,-0.0078,-0.0163,-0.023,-0.0234,-0.0262,-0.0298,-0.0315,-0.0313,-0.0291,-0.029,-0.029,-0.0289,0,0.0277,0.0306,0.0342,0.0346,0.0355,0.0365,0.0368,0.0347,0.0368,0.0322,0.0323,0.0227,0.019,0.0065,-0.0076,-0.0091,-0.0215,-0.0255,-0.0341,-0.0342,-0.0347,-0.0347,-0.0346,-0.0346,-0.0346,-0.0345,-0.0345,0,0.0329,0.036,0.037,0.0391,0.0444,0.0424,0.0467,0.0457,0.0456,0.0489,0.0382,0.0385,0.0196,0.0101,-0.0043,-0.0196,-0.0193,-0.0329,-0.0359,-0.0327,-0.0325,-0.0342,-0.0341,-0.0348,-0.0347,-0.0347,-0.0346,0,0.038,0.0385,0.0435,0.0457,0.047,0.0508,0.0549,0.0583,0.0565,0.0604,0.0597,0.0506,0.0379,0.0192,-0.0002,-0.0138,-0.0294,-0.035,-0.0289,-0.0311,-0.04,-0.0395,-0.0453,-0.0454,-0.0455,-0.0455,-0.0456,0,0.0409,0.044,0.049,0.0527,0.0539,0.059,0.0631,0.064,0.0684,0.0688,0.072,0.0612,0.056,0.0274,0.0005,-0.0242,-0.0282,-0.0377,-0.0409,-0.0388,-0.0412,-0.0406,-0.0401,-0.0394,-0.0394,-0.0394,-0.0394,0,0.047,0.0484,0.0525,0.0605,0.0655,0.0723,0.0783,0.084,0.0859,0.0891,0.0924,0.0887,0.0611,0.0368,0.0018,-0.0156,-0.0339,-0.0384,-0.0383,-0.0369,-0.0336,-0.0358,-0.0354,-0.0393,-0.0393,-0.0393,-0.0393,-0.0393,0.0515,0.0558,0.0614,0.0691,0.0757,0.0848,0.0919,0.0988,0.1079,0.1139,0.1093,0.1051,0.0754,0.0321,0.0002,-0.034,-0.0329,-0.0439,-0.0438,-0.0437,-0.0417,-0.0388,-0.045,-0.045,-0.045,-0.0451,-0.0451,0,0.0575,0.0622,0.0697,0.0791,0.0877,0.0898,0.1018,0.1093,0.1211,0.1254,0.128,0.1028,0.0743,0.0397,-0.0101,-0.0397,-0.0432,-0.0493,-0.0462,-0.046,-0.0458,-0.044,-0.0479,-0.048,-0.0481,-0.0481,0,0,0.0608,0.0691,0.073,0.0879,0.0947,0.107,0.1146,0.1255,0.1322,0.1376,0.1357,0.1285,0.0871,0.0513,0.0098,-0.0187,-0.0261,-0.0253,-0.0196,-0.0109,-0.0104,-0.0391,-0.0355,0,0,0,0,0]}],[{"header":{"parameterUnit":"m.s-1","parameterCategory":2,"la1":30.2991,"la2":30.254,"lo1":-89.0895,"lo2":-89.0444,"dy":0.0017,"dx":0.0017,"nx":28,"ny":28,"refTime":"2024-02-05T03:00:00:Z","depth":"4","parameterNumber":2,"parameterNumberName":"U-component_of_CURRENTS"},"data":[0,0,0,0,0,0,0,0,0,0,0,0,0,0,0,0,0,0,0,0,0,0,0,0,0,0,0,0,0,0,0,0,0,0,0,0,0,0,0,0,0,0,0,0,0,0,0,0,0,0,0,0,0,0,0,0,0,0,0.1573,0.1574,0,0.1647,0.1648,0.1649,0.1709,0.171,0.1711,0.1711,0.1792,0.1793,0.1794,0,0,0,0,0,0,0,0,0,0,0,0,0,0.1467,0.1468,0.1573,0.1574,0.1575,0.1647,0.1648,0.1649,0.1709,0.171,0.1711,0.1712,0.1791,0.1793,0.1795,0,0,0,0,0,0,0,0,0,0,0,0,0,0.1522,0.1469,0.1572,0.1615,0.162,0.1647,0.1648,0.1649,0.1709,0.171,0.1711,0.1712,0.1791,0.1793,0.1795,0.1783,0,0,0.1801,0.1802,0,0,0,0,0,0,0,0,0.1519,0.1526,0.1608,0.1612,0.1618,0.1672,0.1641,0.1695,0.1708,0.1673,0.1711,0.1713,0.1753,0.1758,0.1766,0.1787,0.179,0.1801,0.1803,0.1803,0.1804,0,0,0,0,0,0,0,0.1515,0.1523,0.16,0.1609,0.1615,0.1626,0.1635,0.1651,0.1703,0.1676,0.1681,0.1692,0.1755,0.1764,0.1769,0.1791,0.1801,0.1803,0.1804,0.1805,0.1915,0.1916,0,0,0,0,0,0,0.151,0.1519,0.1598,0.1603,0.1573,0.1627,0.1637,0.1652,0.1703,0.1713,0.1691,0.1695,0.176,0.1766,0.1772,0.1859,0.1803,0.1805,0.1807,0.1913,0.1915,0.1917,0,0,0,0,0,0,0.1507,0.1516,0.1595,0.1564,0.1575,0.1628,0.1643,0.1652,0.1697,0.1715,0.1725,0.1731,0.1761,0.1769,0.1819,0.1859,0.1806,0.1808,0.1911,0.1914,0.1916,0.1971,0,0,0,0,0,0,0.1504,0.1515,0.1538,0.1564,0.1577,0.1635,0.1643,0.1653,0.1701,0.1707,0.1751,0.1758,0.1763,0.1816,0.1821,0.1861,0.181,0.1909,0.1912,0.1915,0.1967,0.1975,0.1982,0,0,0,0,0,0.15,0.1522,0.1539,0.1549,0.1602,0.1637,0.1645,0.1684,0.1702,0.1727,0.1759,0.1759,0.184,0.1819,0.1825,0.1866,0.1907,0.1911,0.1915,0.1964,0.1973,0.1982,0,0,0,0,0,0,0.1489,0.1531,0.155,0.1585,0.1621,0.1649,0.1681,0.1701,0.1746,0.1763,0.1776,0.1785,0.1846,0.1846,0.1823,0.1907,0.1875,0.188,0.191,0.192,0.1927,0.1924,0.1812,0,0,0,0,0,0.1496,0.1529,0.1564,0.1598,0.1618,0.1654,0.1679,0.1706,0.1741,0.1764,0.1794,0.1827,0.1859,0.1883,0.1908,0.1949,0.195,0.1981,0.1988,0.1995,0.1997,0.2022,0.2031,0.1929,0.1929,0.1929,0,0,0.1501,0.1531,0.1551,0.1599,0.1631,0.1664,0.1674,0.1723,0.176,0.1763,0.1832,0.1856,0.1876,0.1928,0.1955,0.1938,0.2029,0.1999,0.2004,0.2004,0.2026,0.2036,0.2045,0.1932,0.1931,0.1931,0,0,0.1517,0.1557,0.1586,0.1619,0.1675,0.1695,0.1717,0.1764,0.1802,0.1856,0.1874,0.1921,0.1969,0.1992,0.2006,0.2068,0.2068,0.2087,0.2123,0.2148,0.2156,0.2163,0.2194,0.2204,0.209,0.209,0.209,0,0.1523,0.1565,0.16,0.1636,0.1671,0.1712,0.1748,0.1786,0.1848,0.1881,0.189,0.1976,0.1995,0.2052,0.208,0.2085,0.2102,0.2086,0.2156,0.2163,0.217,0.22,0.221,0.2093,0.2093,0.2092,0.2092,0,0.155,0.1597,0.162,0.1679,0.1717,0.1761,0.181,0.1862,0.1907,0.194,0.202,0.2048,0.2098,0.2116,0.2119,0.2184,0.2184,0.2162,0.213,0.2183,0.2212,0.2221,0.2097,0.2096,0.2095,0.2095,0,0,0.1527,0.162,0.1633,0.167,0.1749,0.1777,0.1848,0.1914,0.1966,0.2027,0.2089,0.2149,0.2173,0.2191,0.2208,0.2232,0.2299,0.2225,0.2225,0.2251,0.2369,0.2252,0.2251,0.2293,0.2294,0.2295,0.2377,0,0.1541,0.1609,0.1657,0.1727,0.1764,0.1831,0.1887,0.1956,0.2019,0.209,0.2135,0.2201,0.22,0.2237,0.2263,0.2293,0.2323,0.2279,0.2318,0.232,0.2204,0.2257,0.23,0.2384,0.2386,0.2387,0.2388,0,0.1546,0.1595,0.1664,0.1755,0.1778,0.1829,0.1932,0.1992,0.2094,0.2146,0.2218,0.2256,0.2327,0.2304,0.2381,0.2358,0.2374,0.2383,0.2385,0.2259,0.2219,0.2316,0.2404,0.2403,0.2402,0.2401,0.24,0,0.1498,0.1597,0.1654,0.1688,0.1793,0.1847,0.1912,0.2015,0.2075,0.2195,0.2249,0.2325,0.2384,0.241,0.2452,0.2426,0.252,0.2477,0.2388,0.2381,0.2436,0.2427,0.2521,0.2521,0.252,0.252,0.252,0,0.1479,0.1528,0.1644,0.1674,0.1747,0.1834,0.1925,0.2002,0.2114,0.2182,0.2281,0.2336,0.2415,0.2476,0.2484,0.2475,0.2552,0.2403,0.2392,0.2461,0.2454,0.2444,0.2434,0.2523,0.2523,0.2522,0.2521,0,0.1413,0.1493,0.1562,0.1685,0.1728,0.1784,0.1924,0.198,0.2107,0.2201,0.2244,0.2373,0.2453,0.2519,0.2579,0.2512,0.2513,0.2491,0.2593,0.2584,0.2349,0.2341,0.2378,0.2375,0.2372,0.237,0.2367,0,0.1384,0.1415,0.1552,0.1597,0.1662,0.1762,0.1824,0.1961,0.2021,0.2201,0.2229,0.2365,0.2436,0.2432,0.2507,0.2526,0.2495,0.2479,0.2375,0.2349,0.2334,0.2331,0.2327,0.2363,0.2362,0.2361,0.236,0,0.1321,0.1385,0.1442,0.1533,0.1611,0.1685,0.179,0.1815,0.1971,0.2102,0.2162,0.2209,0.2305,0.2348,0.2399,0.2398,0.2471,0.2447,0.2451,0.2353,0.233,0.2318,0.2318,0.235,0.2352,0.2353,0.2353,0,0.1276,0.1298,0.1383,0.1452,0.154,0.158,0.1649,0.1721,0.1792,0.1982,0.2,0.215,0.228,0.2286,0.2325,0.2329,0.2276,0.218,0.2197,0.2209,0.2116,0.2059,0.1993,0,0,0,0,0,0.1219,0.1236,0.1294,0.1359,0.1441,0.1494,0.161,0.1681,0.1826,0.182,0.1903,0.1981,0.2045,0.2122,0.2091,0.2254,0.2288,0.2207,0.2186,0.2293,0.2305,0.2211,0,0,0,0,0,0,0.1179,0.123,0.1256,0.1267,0.1294,0.1367,0.1436,0.1538,0.1542,0.1697,0.1743,0.1865,0.1958,0.2045,0.2054,0.2079,0.2025,0.2304,0.2299,0.2287,0.2297,0.2307,0.2214,0,0,0,0,0]},{"header":{"parameterUnit":"m.s-1","parameterCategory":2,"la1":30.2991,"la2":30.254,"lo1":-89.0895,"lo2":-89.0444,"dy":0.0017,"dx":0.0017,"nx":28,"ny":28,"refTime":"2024-02-05T03:00:00:Z","depth":"4","parameterNumber":3,"parameterNumberName":"V-component_of_CURRENTS"},"data":[0,0,0,0,0,0,0,0,0,0,0,0,0,0,0,0,0,0,0,0,0,0,0,0,0,0,0,0,0,0,0,0,0,0,0,0,0,0,0,0,0,0,0,0,0,0,0,0,0,0,0,0,0,0,0,0,0,0,0.0075,0.0074,0,0.0028,0.0027,0.0027,-0.0005,-0.0005,-0.0005,-0.0005,-0.0074,-0.0076,-0.0077,0,0,0,0,0,0,0,0,0,0,0,0,0,0.0106,0.0106,0.0075,0.0074,0.0073,0.0028,0.0027,0.0027,-0.0005,-0.0005,-0.0005,-0.0006,-0.0074,-0.0076,-0.0077,0,0,0,0,0,0,0,0,0,0,0,0,0,0.0079,0.0105,0.0075,0.0052,0.005,0.0028,0.0027,0.0026,-0.0005,-0.0005,-0.0005,-0.0006,-0.0073,-0.0075,-0.0078,-0.0086,0,0,-0.0085,-0.0086,0,0,0,0,0,0,0,0,0.0081,0.0078,0.0056,0.0054,0.0051,0.0017,0.0013,-0.0012,-0.0005,0.0016,-0.0005,-0.0006,-0.0045,-0.005,-0.0058,-0.0089,-0.0092,-0.0085,-0.0087,-0.0088,-0.0089,0,0,0,0,0,0,0,0.0083,0.008,0.0056,0.0056,0.0052,0.0034,0.003,0.0008,-0.0013,0.0014,0.0012,0.0007,-0.0047,-0.0055,-0.006,-0.0093,-0.0085,-0.0087,-0.0089,-0.009,-0.0141,-0.0141,0,0,0,0,0,0,0.009,0.0082,0.0058,0.0055,0.0065,0.0034,0.0029,0.0028,-0.0012,-0.0018,0.0007,0.0005,-0.0051,-0.0057,-0.0062,-0.0072,-0.0088,-0.009,-0.0092,-0.0141,-0.0141,-0.0141,0,0,0,0,0,0,0.0091,0.0089,0.0059,0.0067,0.0062,0.0034,0.0033,0.0027,0.0017,-0.0017,-0.0024,0.0001,-0.0052,-0.0059,-0.0083,-0.0075,-0.0091,-0.0094,-0.0141,-0.0141,-0.0141,-0.0094,0,0,0,0,0,0,0.0092,0.009,0.0092,0.0067,0.0062,0.005,0.0033,0.0027,0.0014,0.0012,-0.0024,-0.0031,-0.0052,-0.0079,-0.0085,-0.0079,-0.0095,-0.0141,-0.0141,-0.0141,-0.0096,-0.0092,-0.0089,0,0,0,0,0,0.0094,0.0101,0.0093,0.009,0.0066,0.005,0.0045,0.0024,0.0014,0.0013,-0.0013,-0.003,-0.0082,-0.0081,-0.0088,-0.0083,-0.0141,-0.0141,-0.0141,-0.0097,-0.0093,-0.0089,0,0,0,0,0,0,0.0116,0.0098,0.0088,0.0089,0.0072,0.0045,0.0043,0.0026,0.0005,0.0003,-0.0031,-0.004,-0.0058,-0.0078,-0.0076,-0.0097,-0.0113,-0.0115,-0.0078,-0.0074,-0.0071,-0.0049,-0.0097,0,0,0,0,0,0.0123,0.0124,0.01,0.0101,0.0095,0.0069,0.006,0.0046,0.0023,0.0013,-0.0013,-0.0039,-0.0062,-0.0074,-0.0097,-0.0109,-0.0129,-0.011,-0.0107,-0.0104,-0.0092,-0.0115,-0.0112,-0.014,-0.014,-0.014,0,0,0.0132,0.0122,0.0122,0.0106,0.0093,0.009,0.0063,0.0054,0.0054,0.0009,0.0,-0.0031,-0.0064,-0.0077,-0.0087,-0.0093,-0.011,-0.0104,-0.0101,-0.009,-0.0114,-0.0111,-0.0109,-0.014,-0.014,-0.014,0,0,0.0153,0.0142,0.0151,0.0141,0.0124,0.0108,0.0106,0.008,0.007,0.0054,0.0024,-0.0002,-0.0037,-0.0057,-0.0072,-0.0065,-0.0094,-0.0074,-0.0037,-0.006,-0.0057,-0.0056,-0.0087,-0.0089,-0.0069,-0.0069,-0.0069,0,0.0165,0.0174,0.0151,0.0156,0.0154,0.0118,0.0128,0.0113,0.0082,0.008,0.0058,0.0009,-0.0025,-0.0036,-0.0036,-0.0057,-0.0076,-0.0048,-0.0054,-0.0053,-0.0052,-0.0085,-0.0087,-0.0067,-0.0067,-0.0067,-0.0068,0,0.0191,0.0199,0.0204,0.0201,0.0193,0.0196,0.0173,0.0167,0.0147,0.0128,0.0109,0.006,0.0034,0.0016,-0.001,-0.0015,-0.0034,-0.0049,-0.0061,-0.0046,-0.0082,-0.0085,-0.0064,-0.0064,-0.0065,-0.0066,0,0,0.0217,0.0223,0.0226,0.0239,0.022,0.022,0.0222,0.0215,0.0225,0.0184,0.0189,0.0137,0.0109,0.009,0.0052,0.003,0.0009,0.0,-0.0002,-0.0025,-0.0045,-0.0065,-0.0071,-0.0004,-0.0004,-0.0004,-0.0077,0,0.0246,0.0276,0.0265,0.0293,0.0307,0.0284,0.0292,0.028,0.0261,0.0256,0.0206,0.019,0.0139,0.0126,0.0096,0.0033,0.0006,0.003,-0.0061,-0.0064,-0.0078,-0.0073,-0.0004,-0.0079,-0.008,-0.0081,-0.0081,0,0.0275,0.0294,0.0328,0.0353,0.0357,0.0364,0.0377,0.0382,0.0363,0.0348,0.0319,0.0275,0.0232,0.0187,0.0092,0.0111,0.0042,-0.0012,-0.0016,-0.0049,-0.0089,-0.0096,-0.0087,-0.0086,-0.0086,-0.0085,-0.0085,0,0.0309,0.0339,0.0372,0.0378,0.0393,0.041,0.0419,0.0411,0.0432,0.0409,0.041,0.0346,0.0316,0.0229,0.0106,0.0103,-0.0001,-0.0023,-0.0108,-0.0112,-0.0092,-0.0093,-0.0084,-0.0084,-0.0084,-0.0084,-0.0083,0,0.0343,0.0372,0.0395,0.0413,0.0463,0.0456,0.05,0.0501,0.051,0.0537,0.0464,0.0459,0.0327,0.0245,0.0133,0.0002,0.0014,-0.0098,-0.0127,-0.0073,-0.0071,-0.0095,-0.0095,-0.0086,-0.0086,-0.0085,-0.0085,0,0.0371,0.0384,0.0431,0.0464,0.0481,0.0517,0.0564,0.0597,0.0593,0.0625,0.0622,0.0547,0.0432,0.0287,0.0136,0.0039,-0.0086,-0.0137,-0.0072,-0.0097,-0.0189,-0.0187,-0.0233,-0.0234,-0.0235,-0.0236,-0.0237,0,0.0386,0.0413,0.0472,0.0508,0.0525,0.0578,0.0617,0.0639,0.0675,0.0677,0.0697,0.0599,0.0524,0.0301,0.0138,-0.0082,-0.0116,-0.0183,-0.0183,-0.0179,-0.0203,-0.0198,-0.0194,-0.0238,-0.0239,-0.0239,-0.0239,0,0.0419,0.0441,0.048,0.0555,0.0606,0.0667,0.0724,0.0757,0.0783,0.0781,0.0758,0.0635,0.0499,0.0309,0.0131,-0.0025,-0.0139,-0.0194,-0.0193,-0.0194,-0.0186,-0.0208,-0.0202,-0.0243,-0.0242,-0.0242,-0.0242,0,0.0444,0.0478,0.0532,0.0597,0.0669,0.0735,0.0761,0.0797,0.0831,0.083,0.0821,0.0669,0.0583,0.0337,0.0179,0.0015,-0.003,-0.0079,-0.0084,-0.0083,-0.0025,0.0009,-0.0006,0,0,0,0,0,0.0465,0.0505,0.057,0.0643,0.0715,0.0758,0.0825,0.0843,0.0865,0.0862,0.0846,0.0718,0.0477,0.0373,0.0206,0.0142,-0.007,-0.0061,-0.0131,-0.0263,-0.0259,-0.0219,0,0,0,0,0,0,0.0479,0.054,0.0572,0.0668,0.0723,0.0806,0.0852,0.0867,0.0862,0.0859,0.0735,0.0675,0.0439,0.0574,0.0204,0.0153,0.0084,-0.0174,-0.0178,-0.0265,-0.0261,-0.0258,-0.0216,0,0,0,0,0]}]]